| time (UTC) | temp C | wind direction | speed KPH | gust KPH | rain 1hr cm | rain 24hr cm | rain mn cm | humidity % | barometer mb |
| 20260505130130 | 11 | 68 | 27.4 | 41.8 | 0.00 | 0.00 | 0.00 | 45 | 1173.2 |
| 20260505124619 | 11 | 77 | 22.5 | 35.4 | 0.00 | 0.00 | 0.00 | 46 | 1173.0 |
| 20260505124115 | 11 | 74 | 32.2 | 48.3 | 0.00 | 0.00 | 0.00 | 45 | 1172.6 |
| 20260505123612 | 11 | 59 | 25.7 | 46.7 | 0.00 | 0.00 | 0.00 | 45 | 1172.9 |
| 20260505123108 | 11 | 61 | 27.4 | 37.0 | 0.00 | 0.00 | 0.00 | 46 | 1172.6 |
| 20260505122604 | 11 | 91 | 32.2 | 38.6 | 0.00 | 0.00 | 0.00 | 46 | 1172.6 |
| 20260505122101 | 11 | 48 | 22.5 | 29.0 | 0.00 | 0.00 | 0.00 | 47 | 1172.5 |
| 20260505121553 | 11 | 69 | 24.1 | 41.8 | 0.00 | 0.00 | 0.00 | 47 | 1172.4 |
| 20260505121050 | 11 | 70 | 20.9 | 32.2 | 0.00 | 0.00 | 0.00 | 47 | 1172.4 |
| 20260505120546 | 11 | 62 | 27.4 | 43.5 | 0.00 | 0.00 | 0.00 | 46 | 1172.3 |
| 20260505120042 | 11 | 59 | 25.7 | 37.0 | 0.00 | 0.00 | 0.00 | 46 | 1172.3 |
| 20260505115536 | 11 | 86 | 19.3 | 37.0 | 0.00 | 0.00 | 0.00 | 47 | 1172.4 |
| 20260505115034 | 11 | 63 | 24.1 | 32.2 | 0.00 | 0.00 | 0.00 | 47 | 1172.3 |
| 20260505114531 | 11 | 57 | 24.1 | 37.0 | 0.00 | 0.00 | 0.00 | 46 | 1172.1 |
| 20260505114027 | 11 | 71 | 14.5 | 32.2 | 0.00 | 0.00 | 0.00 | 47 | 1172.3 |
| 20260505113524 | 11 | 84 | 24.1 | 33.8 | 0.00 | 0.00 | 0.00 | 47 | 1171.9 |
| 20260505113020 | 11 | 60 | 16.1 | 35.4 | 0.00 | 0.00 | 0.00 | 48 | 1172.1 |
| 20260505112516 | 11 | 59 | 17.7 | 32.2 | 0.00 | 0.00 | 0.00 | 48 | 1172.0 |
| 20260505112014 | 11 | 65 | 27.4 | 35.4 | 0.00 | 0.00 | 0.00 | 48 | 1172.0 |
| 20260505111508 | 11 | 79 | 22.5 | 38.6 | 0.00 | 0.00 | 0.00 | 48 | 1172.0 |
| 20260505111005 | 11 | 51 | 19.3 | 33.8 | 0.00 | 0.00 | 0.00 | 49 | 1171.6 |
| 20260505110502 | 11 | 69 | 20.9 | 27.4 | 0.00 | 0.00 | 0.00 | 49 | 1172.1 |
| 20260505101933 | 12 | 76 | 12.9 | 16.1 | 0.00 | 0.00 | 0.00 | 46 | 1171.6 |
| 20260505101427 | 12 | 92 | 11.3 | 22.5 | 0.00 | 0.00 | 0.00 | 46 | 1171.7 |
| 20260505100923 | 12 | 72 | 12.9 | 14.5 | 0.00 | 0.00 | 0.00 | 46 | 1171.6 |
| 20260505100420 | 12 | 82 | 11.3 | 12.9 | 0.00 | 0.00 | 0.00 | 46 | 1171.6 |
| 20260505095915 | 12 | 80 | 11.3 | 16.1 | 0.00 | 0.00 | 0.00 | 45 | 1171.6 |
| 20260505095413 | 12 | 75 | 19.3 | 20.9 | 0.00 | 0.00 | 0.00 | 45 | 1171.5 |
| 20260505094909 | 12 | 61 | 12.9 | 17.7 | 0.00 | 0.00 | 0.00 | 45 | 1171.6 |
| 20260505094406 | 12 | 51 | 12.9 | 29.0 | 0.00 | 0.00 | 0.00 | 45 | 1171.3 |
| 20260505093901 | 13 | 63 | 17.7 | 35.4 | 0.00 | 0.00 | 0.00 | 44 | 1171.1 |
| 20260505093359 | 12 | 68 | 25.7 | 48.3 | 0.00 | 0.00 | 0.00 | 43 | 1171.1 |
| 20260505092856 | 12 | 69 | 22.5 | 35.4 | 0.00 | 0.00 | 0.00 | 44 | 1171.0 |
| 20260505092354 | 13 | 47 | 16.1 | 32.2 | 0.00 | 0.00 | 0.00 | 44 | 1171.1 |
| 20260505091851 | 13 | 53 | 17.7 | 29.0 | 0.00 | 0.00 | 0.00 | 44 | 1171.1 |
| 20260505091349 | 13 | 67 | 17.7 | 25.7 | 0.00 | 0.00 | 0.00 | 45 | 1171.2 |
| 20260505090847 | 13 | 71 | 27.4 | 37.0 | 0.00 | 0.00 | 0.00 | 44 | 1171.0 |
| 20260505090345 | 13 | 63 | 35.4 | 41.8 | 0.00 | 0.00 | 0.00 | 43 | 1171.2 |
| 20260505085842 | 13 | 66 | 17.7 | 46.7 | 0.00 | 0.00 | 0.00 | 43 | 1170.8 |
| 20260505085340 | 13 | 51 | 24.1 | 33.8 | 0.00 | 0.00 | 0.00 | 42 | 1171.1 |
| 20260505084837 | 14 | 52 | 27.4 | 38.6 | 0.00 | 0.00 | 0.00 | 42 | 1171.1 |
| 20260505084335 | 14 | 59 | 24.1 | 32.2 | 0.00 | 0.00 | 0.00 | 43 | 1171.1 |
| 20260505083832 | 14 | 63 | 27.4 | 37.0 | 0.00 | 0.00 | 0.00 | 42 | 1170.8 |
| 20260505083330 | 14 | 61 | 32.2 | 40.2 | 0.00 | 0.00 | 0.00 | 41 | 1170.7 |
| 20260505082826 | 15 | 56 | 19.3 | 35.4 | 0.00 | 0.00 | 0.00 | 42 | 1170.8 |
| 20260505082323 | 15 | 66 | 20.9 | 33.8 | 0.00 | 0.00 | 0.00 | 42 | 1170.7 |
| 20260505081819 | 15 | 64 | 19.3 | 37.0 | 0.00 | 0.00 | 0.00 | 41 | 1171.0 |
| 20260505081316 | 15 | 64 | 43.5 | 51.5 | 0.00 | 0.00 | 0.00 | 39 | 1171.0 |
| 20260505080813 | 15 | 75 | 29.0 | 48.3 | 0.00 | 0.00 | 0.00 | 40 | 1170.8 |
| 20260505080309 | 15 | 51 | 27.4 | 40.2 | 0.00 | 0.00 | 0.00 | 40 | 1171.0 |
| 20260505075804 | 15 | 61 | 29.0 | 46.7 | 0.00 | 0.00 | 0.00 | 39 | 1170.5 |
| 20260505075304 | 15 | 45 | 30.6 | 37.0 | 0.00 | 0.00 | 0.00 | 39 | 1170.6 |
| 20260505074759 | 16 | 73 | 27.4 | 35.4 | 0.00 | 0.00 | 0.00 | 39 | 1170.7 |
| 20260505074256 | 16 | 57 | 25.7 | 37.0 | 0.00 | 0.00 | 0.00 | 38 | 1170.6 |
| 20260505073753 | 16 | 54 | 19.3 | 35.4 | 0.00 | 0.00 | 0.00 | 39 | 1170.6 |
| 20260505073251 | 16 | 57 | 17.7 | 35.4 | 0.00 | 0.00 | 0.00 | 38 | 1170.6 |
| 20260505072748 | 16 | 66 | 24.1 | 33.8 | 0.00 | 0.00 | 0.00 | 38 | 1170.4 |
| 20260505072244 | 16 | 65 | 22.5 | 27.4 | 0.00 | 0.00 | 0.00 | 38 | 1170.4 |
| 20260505071739 | 16 | 63 | 16.1 | 24.1 | 0.00 | 0.00 | 0.00 | 38 | 1170.6 |
| 20260505071236 | 17 | 60 | 24.1 | 33.8 | 0.00 | 0.00 | 0.00 | 37 | 1170.5 |
| 20260505070734 | 17 | 75 | 19.3 | 35.4 | 0.00 | 0.00 | 0.00 | 37 | 1170.4 |
| 20260505070230 | 17 | 67 | 20.9 | 35.4 | 0.00 | 0.00 | 0.00 | 37 | 1170.3 |
| 20260505065726 | 16 | 69 | 14.5 | 27.4 | 0.00 | 0.00 | 0.00 | 38 | 1170.5 |
| 20260505065223 | 16 | 50 | 17.7 | 33.8 | 0.00 | 0.00 | 0.00 | 39 | 1170.5 |
| 20260505064720 | 16 | 50 | 11.3 | 27.4 | 0.00 | 0.00 | 0.00 | 40 | 1170.2 |
| 20260505064218 | 16 | 56 | 19.3 | 25.7 | 0.00 | 0.00 | 0.00 | 40 | 1170.1 |
| 20260505063715 | 16 | 71 | 11.3 | 20.9 | 0.00 | 0.00 | 0.00 | 40 | 1169.9 |
| 20260505063211 | 17 | 54 | 14.5 | 24.1 | 0.00 | 0.00 | 0.00 | 40 | 1169.9 |
| 20260505062707 | 17 | 67 | 17.7 | 22.5 | 0.00 | 0.00 | 0.00 | 39 | 1169.8 |
| 20260505062205 | 17 | 87 | 8.0 | 20.9 | 0.00 | 0.00 | 0.00 | 39 | 1169.8 |
| 20260505061702 | 17 | 63 | 17.7 | 24.1 | 0.00 | 0.00 | 0.00 | 39 | 1170.1 |
| 20260505061200 | 17 | 43 | 17.7 | 24.1 | 0.00 | 0.00 | 0.00 | 38 | 1169.9 |
| 20260505060657 | 17 | 59 | 11.3 | 22.5 | 0.00 | 0.00 | 0.00 | 39 | 1170.1 |
| 20260505060154 | 17 | 62 | 22.5 | 25.7 | 0.00 | 0.00 | 0.00 | 39 | 1169.8 |
| 20260505055649 | 17 | 58 | 14.5 | 20.9 | 0.00 | 0.00 | 0.00 | 38 | 1169.7 |
| 20260505055146 | 17 | 46 | 14.5 | 24.1 | 0.00 | 0.00 | 0.00 | 38 | 1169.6 |
| 20260505054643 | 16 | 54 | 16.1 | 20.9 | 0.00 | 0.00 | 0.00 | 38 | 1169.6 |
| 20260505054141 | 16 | 35 | 12.9 | 14.5 | 0.00 | 0.00 | 0.00 | 40 | 1169.5 |
| 20260505053639 | 15 | 39 | 11.3 | 14.5 | 0.00 | 0.00 | 0.00 | 41 | 1169.5 |
| 20260505053135 | 15 | 51 | 11.3 | 12.9 | 0.00 | 0.00 | 0.00 | 41 | 1169.5 |
| 20260505052632 | 15 | 48 | 9.7 | 11.3 | 0.00 | 0.00 | 0.00 | 41 | 1169.5 |
| 20260505052130 | 16 | 46 | 11.3 | 12.9 | 0.00 | 0.00 | 0.00 | 39 | 1169.4 |
| 20260505051626 | 16 | 50 | 11.3 | 14.5 | 0.00 | 0.00 | 0.00 | 38 | 1169.7 |
| 20260505051124 | 15 | 59 | 6.4 | 14.5 | 0.00 | 0.00 | 0.00 | 38 | 1169.6 |
| 20260505050622 | 13 | 39 | 9.7 | 12.9 | 0.00 | 0.00 | 0.00 | 44 | 1169.3 |
| 20260505050120 | 12 | 62 | 14.5 | 16.1 | 0.00 | 0.00 | 0.00 | 44 | 1169.3 |
| 20260505041549 | 17 | 271 | 4.8 | 9.7 | 0.00 | 0.00 | 0.00 | 37 | 1168.8 |
| 20260505041047 | 18 | 271 | 6.4 | 8.0 | 0.00 | 0.00 | 0.00 | 33 | 1168.8 |
| 20260505040544 | 18 | 273 | 6.4 | 9.7 | 0.00 | 0.00 | 0.00 | 33 | 1168.7 |
| 20260505040041 | 18 | 289 | 6.4 | 11.3 | 0.00 | 0.00 | 0.00 | 31 | 1168.9 |
| 20260505035537 | 18 | 296 | 8.0 | 9.7 | 0.00 | 0.00 | 0.00 | 31 | 1168.6 |
| 20260505035034 | 18 | 301 | 4.8 | 9.7 | 0.00 | 0.00 | 0.00 | 32 | 1168.6 |
| 20260505034530 | 18 | 298 | 6.4 | 8.0 | 0.00 | 0.00 | 0.00 | 33 | 1168.4 |
| 20260505034027 | 18 | 264 | 6.4 | 9.7 | 0.00 | 0.00 | 0.00 | 35 | 1168.5 |
| 20260505033525 | 18 | 255 | 8.0 | 12.9 | 0.00 | 0.00 | 0.00 | 33 | 1168.0 |
| 20260505033023 | 18 | 276 | 9.7 | 9.7 | 0.00 | 0.00 | 0.00 | 36 | 1168.3 |
| 20260505032520 | 18 | 246 | 8.0 | 12.9 | 0.00 | 0.00 | 0.00 | 31 | 1168.3 |
| 20260505032016 | 19 | 222 | 6.4 | 8.0 | 0.00 | 0.00 | 0.00 | 33 | 1168.4 |
| 20260505031514 | 19 | 212 | 6.4 | 9.7 | 0.00 | 0.00 | 0.00 | 31 | 1168.5 |
| 20260505031010 | 19 | 224 | 8.0 | 9.7 | 0.00 | 0.00 | 0.00 | 33 | 1168.4 |
| 20260505030507 | 20 | 211 | 14.5 | 16.1 | 0.00 | 0.00 | 0.00 | 29 | 1168.4 |
| 20260505030003 | 21 | 182 | 12.9 | 14.5 | 0.00 | 0.00 | 0.00 | 27 | 1168.6 |
| 20260505025459 | 21 | 179 | 11.3 | 14.5 | 0.00 | 0.00 | 0.00 | 27 | 1168.3 |
| 20260505024958 | 21 | 186 | 4.8 | 8.0 | 0.00 | 0.00 | 0.00 | 27 | 1168.7 |
| 20260505024454 | 21 | 93 | 6.4 | 11.3 | 0.00 | 0.00 | 0.00 | 26 | 1168.7 |
| 20260505023952 | 21 | 120 | 11.3 | 17.7 | 0.00 | 0.00 | 0.00 | 26 | 1168.8 |
| 20260505023449 | 21 | 69 | 11.3 | 24.1 | 0.00 | 0.00 | 0.00 | 27 | 1169.0 |
| 20260505022946 | 21 | 80 | 11.3 | 16.1 | 0.00 | 0.00 | 0.00 | 27 | 1169.0 |
| 20260505022444 | 22 | 77 | 8.0 | 16.1 | 0.00 | 0.00 | 0.00 | 24 | 1168.7 |
| 20260505021941 | 21 | 70 | 17.7 | 27.4 | 0.00 | 0.00 | 0.00 | 27 | 1168.8 |
| 20260505021437 | 22 | 59 | 8.0 | 20.9 | 0.00 | 0.00 | 0.00 | 28 | 1168.8 |
| 20260505020933 | 21 | 239 | 3.2 | 3.2 | 0.00 | 0.00 | 0.00 | 32 | 1168.8 |
| 20260505020428 | 22 | 211 | 4.8 | 4.8 | 0.00 | 0.00 | 0.00 | 31 | 1168.9 |
| 20260505015925 | 22 | 215 | 4.8 | 4.8 | 0.00 | 0.00 | 0.00 | 31 | 1168.6 |
| 20260505015422 | 22 | 43 | 1.6 | 3.2 | 0.00 | 0.00 | 0.00 | 29 | 1168.6 |
| 20260505014920 | 22 | 347 | 3.2 | 9.7 | 0.00 | 0.00 | 0.00 | 30 | 1168.5 |
| 20260505014416 | 22 | 356 | 4.8 | 11.3 | 0.00 | 0.00 | 0.00 | 30 | 1168.6 |
| 20260505013914 | 23 | 3 | 8.0 | 8.0 | 0.00 | 0.00 | 0.00 | 22 | 1168.6 |
| 20260505013410 | 23 | 255 | 6.4 | 11.3 | 0.00 | 0.00 | 0.00 | 26 | 1168.4 |
| 20260505012909 | 23 | 280 | 14.5 | 16.1 | 0.00 | 0.00 | 0.00 | 22 | 1168.4 |
| 20260505012406 | 23 | 262 | 9.7 | 17.7 | 0.00 | 0.00 | 0.00 | 24 | 1168.1 |
| 20260505011902 | 23 | 257 | 14.5 | 20.9 | 0.00 | 0.00 | 0.00 | 26 | 1168.4 |
| 20260505011359 | 23 | 261 | 19.3 | 22.5 | 0.00 | 0.00 | 0.00 | 24 | 1168.0 |
| 20260505010855 | 23 | 268 | 11.3 | 17.7 | 0.00 | 0.00 | 0.00 | 27 | 1168.0 |
| 20260505010351 | 23 | 248 | 19.3 | 22.5 | 0.00 | 0.00 | 0.00 | 25 | 1168.3 |
| 20260505005847 | 23 | 273 | 11.3 | 16.1 | 0.00 | 0.00 | 0.00 | 24 | 1168.1 |
| 20260505005344 | 23 | 249 | 14.5 | 17.7 | 0.00 | 0.00 | 0.00 | 27 | 1168.3 |
| 20260505004842 | 23 | 242 | 9.7 | 17.7 | 0.00 | 0.00 | 0.00 | 27 | 1167.8 |
| 20260505004338 | 23 | 246 | 17.7 | 25.7 | 0.00 | 0.00 | 0.00 | 27 | 1168.1 |
| 20260505003835 | 23 | 267 | 20.9 | 25.7 | 0.00 | 0.00 | 0.00 | 24 | 1168.5 |
| 20260505003333 | 23 | 253 | 19.3 | 25.7 | 0.00 | 0.00 | 0.00 | 27 | 1168.4 |
| 20260505002828 | 23 | 254 | 12.9 | 16.1 | 0.00 | 0.00 | 0.00 | 25 | 1168.4 |
| 20260505002326 | 23 | 261 | 17.7 | 22.5 | 0.00 | 0.00 | 0.00 | 25 | 1168.5 |
| 20260505001824 | 23 | 266 | 11.3 | 17.7 | 0.00 | 0.00 | 0.00 | 26 | 1168.5 |
| 20260505001320 | 23 | 277 | 12.9 | 22.5 | 0.00 | 0.00 | 0.00 | 26 | 1168.4 |
| 20260505000818 | 24 | 276 | 20.9 | 24.1 | 0.00 | 0.00 | 0.00 | 25 | 1168.4 |
| 20260505000316 | 24 | 271 | 12.9 | 17.7 | 0.00 | 0.00 | 0.00 | 24 | 1168.4 |
| 20260504235812 | 23 | 239 | 8.0 | 14.5 | 0.00 | 0.00 | 0.00 | 26 | 1168.7 |
| 20260504235309 | 24 | 248 | 12.9 | 20.9 | 0.00 | 0.00 | 0.00 | 28 | 1168.5 |
| 20260504234806 | 24 | 317 | 14.5 | 24.1 | 0.00 | 0.00 | 0.00 | 24 | 1168.4 |
| 20260504234303 | 24 | 247 | 14.5 | 22.5 | 0.00 | 0.00 | 0.00 | 25 | 1168.4 |
| 20260504233759 | 24 | 269 | 8.0 | 17.7 | 0.00 | 0.00 | 0.00 | 24 | 1168.5 |
| 20260504233255 | 24 | 251 | 19.3 | 27.4 | 0.00 | 0.00 | 0.00 | 25 | 1168.6 |
| 20260504232752 | 24 | 247 | 12.9 | 12.9 | 0.00 | 0.00 | 0.00 | 24 | 1168.5 |
| 20260504232249 | 24 | 240 | 22.5 | 25.7 | 0.00 | 0.00 | 0.00 | 23 | 1168.7 |
| 20260504231746 | 24 | 267 | 17.7 | 25.7 | 0.00 | 0.00 | 0.00 | 23 | 1168.7 |
| 20260504231242 | 24 | 261 | 14.5 | 22.5 | 0.00 | 0.00 | 0.00 | 22 | 1168.6 |
| 20260504230738 | 24 | 255 | 17.7 | 24.1 | 0.00 | 0.00 | 0.00 | 23 | 1168.7 |
| 20260504230237 | 24 | 276 | 16.1 | 20.9 | 0.00 | 0.00 | 0.00 | 22 | 1168.8 |
| 20260504225736 | 24 | 266 | 22.5 | 25.7 | 0.00 | 0.00 | 0.00 | 25 | 1168.8 |
| 20260504225231 | 23 | 285 | 22.5 | 25.7 | 0.00 | 0.00 | 0.00 | 25 | 1168.8 |
| 20260504224729 | 24 | 257 | 22.5 | 29.0 | 0.00 | 0.00 | 0.00 | 24 | 1168.9 |
| 20260504224226 | 25 | 293 | 11.3 | 24.1 | 0.00 | 0.00 | 0.00 | 25 | 1168.9 |
| 20260504223722 | 24 | 270 | 11.3 | 22.5 | 0.00 | 0.00 | 0.00 | 23 | 1169.2 |
| 20260504223218 | 24 | 265 | 11.3 | 27.4 | 0.00 | 0.00 | 0.00 | 23 | 1168.9 |
| 20260504222715 | 24 | 239 | 11.3 | 20.9 | 0.00 | 0.00 | 0.00 | 25 | 1169.0 |
| 20260504222212 | 25 | 258 | 12.9 | 17.7 | 0.00 | 0.00 | 0.00 | 22 | 1169.0 |
| 20260504221709 | 24 | 279 | 19.3 | 29.0 | 0.00 | 0.00 | 0.00 | 22 | 1169.2 |
| 20260504221206 | 24 | 283 | 17.7 | 24.1 | 0.00 | 0.00 | 0.00 | 24 | 1169.5 |
| 20260504220703 | 24 | 262 | 9.7 | 17.7 | 0.00 | 0.00 | 0.00 | 21 | 1169.7 |
| 20260504220200 | 25 | 243 | 19.3 | 27.4 | 0.00 | 0.00 | 0.00 | 20 | 1169.6 |
| 20260504215656 | 24 | 241 | 9.7 | 17.7 | 0.00 | 0.00 | 0.00 | 23 | 1169.6 |
| 20260504215154 | 25 | 284 | 8.0 | 16.1 | 0.00 | 0.00 | 0.00 | 22 | 1169.7 |
| 20260504214649 | 25 | 223 | 12.9 | 17.7 | 0.00 | 0.00 | 0.00 | 22 | 1169.6 |
| 20260504214146 | 24 | 293 | 14.5 | 17.7 | 0.00 | 0.00 | 0.00 | 21 | 1169.9 |
| 20260504213643 | 24 | 248 | 14.5 | 16.1 | 0.00 | 0.00 | 0.00 | 25 | 1170.2 |
| 20260504213139 | 23 | 259 | 11.3 | 20.9 | 0.00 | 0.00 | 0.00 | 24 | 1169.9 |
| 20260504212636 | 23 | 256 | 11.3 | 14.5 | 0.00 | 0.00 | 0.00 | 26 | 1170.1 |
| 20260504212133 | 25 | 265 | 19.3 | 22.5 | 0.00 | 0.00 | 0.00 | 26 | 1170.2 |
| 20260504211631 | 23 | 293 | 9.7 | 16.1 | 0.00 | 0.00 | 0.00 | 25 | 1170.2 |
| 20260504211126 | 24 | 226 | 14.5 | 17.7 | 0.00 | 0.00 | 0.00 | 26 | 1170.3 |
| 20260504210625 | 24 | 309 | 11.3 | 16.1 | 0.00 | 0.00 | 0.00 | 27 | 1170.4 |
| 20260504210120 | 24 | 278 | 4.8 | 11.3 | 0.00 | 0.00 | 0.00 | 27 | 1170.7 |
| 20260504205618 | 24 | 246 | 6.4 | 9.7 | 0.00 | 0.00 | 0.00 | 27 | 1170.5 |
| 20260504205116 | 23 | 226 | 8.0 | 17.7 | 0.00 | 0.00 | 0.00 | 28 | 1170.5 |
| 20260504204614 | 23 | 235 | 11.3 | 14.5 | 0.00 | 0.00 | 0.00 | 27 | 1170.6 |
| 20260504204113 | 23 | 227 | 0.0 | 11.3 | 0.00 | 0.00 | 0.00 | 27 | 1170.6 |
| 20260504203611 | 23 | 227 | 8.0 | 11.3 | 0.00 | 0.00 | 0.00 | 28 | 1171.0 |
| 20260504203108 | 23 | 204 | 14.5 | 16.1 | 0.00 | 0.00 | 0.00 | 27 | 1170.8 |
| 20260504202603 | 23 | 154 | 4.8 | 8.0 | 0.00 | 0.00 | 0.00 | 28 | 1171.0 |
| 20260504202100 | 23 | 269 | 1.6 | 4.8 | 0.00 | 0.00 | 0.00 | 29 | 1170.8 |
| 20260504201556 | 23 | 275 | 9.7 | 12.9 | 0.00 | 0.00 | 0.00 | 29 | 1171.1 |
| 20260504201055 | 22 | 213 | 6.4 | 11.3 | 0.00 | 0.00 | 0.00 | 29 | 1171.2 |
| 20260504200550 | 23 | 244 | 12.9 | 16.1 | 0.00 | 0.00 | 0.00 | 29 | 1171.0 |
| 20260504200048 | 23 | 250 | 12.9 | 14.5 | 0.00 | 0.00 | 0.00 | 30 | 1171.3 |
| 20260504195544 | 23 | 246 | 14.5 | 16.1 | 0.00 | 0.00 | 0.00 | 30 | 1171.3 |
| 20260504195040 | 22 | 221 | 8.0 | 11.3 | 0.00 | 0.00 | 0.00 | 31 | 1171.3 |
| 20260504194537 | 22 | 157 | 4.8 | 9.7 | 0.00 | 0.00 | 0.00 | 31 | 1171.4 |
| 20260504194032 | 22 | 165 | 4.8 | 9.7 | 0.00 | 0.00 | 0.00 | 31 | 1171.3 |
| 20260504193529 | 22 | 173 | 1.6 | 4.8 | 0.00 | 0.00 | 0.00 | 31 | 1171.4 |
| 20260504193028 | 22 | 200 | 8.0 | 11.3 | 0.00 | 0.00 | 0.00 | 32 | 1171.4 |
| 20260504192526 | 21 | 96 | 0.0 | 3.2 | 0.00 | 0.00 | 0.00 | 32 | 1171.7 |
| 20260504192024 | 22 | 153 | 9.7 | 12.9 | 0.00 | 0.00 | 0.00 | 32 | 1171.5 |
| 20260504191521 | 22 | 175 | 3.2 | 12.9 | 0.00 | 0.00 | 0.00 | 32 | 1172.0 |
| 20260504191017 | 21 | 111 | 4.8 | 4.8 | 0.00 | 0.00 | 0.00 | 29 | 1172.1 |
| 20260504190514 | 21 | 123 | 4.8 | 14.5 | 0.00 | 0.00 | 0.00 | 30 | 1172.2 |
| 20260504190010 | 21 | 186 | 4.8 | 12.9 | 0.00 | 0.00 | 0.00 | 31 | 1171.9 |
| 20260504185507 | 21 | 159 | 12.9 | 14.5 | 0.00 | 0.00 | 0.00 | 31 | 1171.7 |
| 20260504185003 | 21 | 151 | 3.2 | 12.9 | 0.00 | 0.00 | 0.00 | 31 | 1172.2 |
| 20260504184459 | 20 | 197 | 9.7 | 12.9 | 0.00 | 0.00 | 0.00 | 33 | 1172.3 |
| 20260504183954 | 21 | 198 | 11.3 | 12.9 | 0.00 | 0.00 | 0.00 | 30 | 1172.2 |
| 20260504183452 | 21 | 191 | 12.9 | 14.5 | 0.00 | 0.00 | 0.00 | 31 | 1172.5 |
| 20260504182950 | 21 | 194 | 9.7 | 14.5 | 0.00 | 0.00 | 0.00 | 33 | 1172.2 |
| 20260504182446 | 20 | 147 | 6.4 | 20.9 | 0.00 | 0.00 | 0.00 | 34 | 1172.4 |
| 20260504181944 | 20 | 156 | 12.9 | 14.5 | 0.00 | 0.00 | 0.00 | 33 | 1172.5 |
| 20260504181441 | 20 | 139 | 6.4 | 17.7 | 0.00 | 0.00 | 0.00 | 33 | 1172.5 |
| 20260504180939 | 20 | 120 | 11.3 | 16.1 | 0.00 | 0.00 | 0.00 | 32 | 1172.8 |
| 20260504180438 | 20 | 162 | 12.9 | 17.7 | 0.00 | 0.00 | 0.00 | 34 | 1172.4 |
| 20260504175936 | 20 | 126 | 11.3 | 14.5 | 0.00 | 0.00 | 0.00 | 34 | 1172.9 |
| 20260504175432 | 20 | 102 | 6.4 | 9.7 | 0.00 | 0.00 | 0.00 | 35 | 1172.9 |
| 20260504174930 | 20 | 126 | 8.0 | 11.3 | 0.00 | 0.00 | 0.00 | 36 | 1172.8 |
| 20260504174428 | 20 | 181 | 11.3 | 12.9 | 0.00 | 0.00 | 0.00 | 36 | 1172.8 |
| 20260504173925 | 20 | 190 | 3.2 | 9.7 | 0.00 | 0.00 | 0.00 | 37 | 1172.5 |
| 20260504173421 | 18 | 153 | 8.0 | 14.5 | 0.00 | 0.00 | 0.00 | 37 | 1172.6 |
| 20260504172919 | 18 | 158 | 4.8 | 12.9 | 0.00 | 0.00 | 0.00 | 38 | 1172.9 |
| 20260504172414 | 18 | 149 | 4.8 | 12.9 | 0.00 | 0.00 | 0.00 | 37 | 1173.1 |
| 20260504171911 | 18 | 162 | 8.0 | 12.9 | 0.00 | 0.00 | 0.00 | 38 | 1172.9 |
| 20260504171408 | 18 | 182 | 9.7 | 17.7 | 0.00 | 0.00 | 0.00 | 37 | 1172.8 |
| 20260504170905 | 17 | 164 | 11.3 | 16.1 | 0.00 | 0.00 | 0.00 | 37 | 1172.8 |
| 20260504170402 | 17 | 172 | 9.7 | 16.1 | 0.00 | 0.00 | 0.00 | 38 | 1172.9 |
| 20260504160320 | 16 | 105 | 6.4 | 12.9 | 0.00 | 0.00 | 0.00 | 38 | 1173.0 |
| 20260504150745 | 14 | 66 | 14.5 | 17.7 | 0.00 | 0.00 | 0.00 | 38 | 1172.9 |
| 20260504150242 | 14 | 83 | 12.9 | 16.1 | 0.00 | 0.00 | 0.00 | 39 | 1173.2 |
| 20260504141212 | 13 | 29 | 8.0 | 11.3 | 0.00 | 0.00 | 0.00 | 44 | 1173.3 |
| 20260504140708 | 12 | 41 | 9.7 | 12.9 | 0.00 | 0.00 | 0.00 | 46 | 1173.3 |
| 20260504140203 | 12 | 30 | 8.0 | 9.7 | 0.00 | 0.00 | 0.00 | 47 | 1173.3 |